| time (UTC) | temp F | wind direction | speed MPH | gust MPH | rain 1hr in | rain 24hr in | rain mn in | humidity % | barometer mb |
| 20260902200030 | 83 | 355 | 4.0 | 8.0 | 0.00 | 0.00 | 0.00 | 37 | 1020.4 |
| 20260902193031 | 83 | 334 | 5.0 | 9.0 | 0.00 | 0.00 | 0.00 | 41 | 1020.4 |
| 20260902190030 | 83 | 332 | 6.0 | 10.0 | 0.00 | 0.00 | 0.00 | 41 | 1020.1 |
| 20260902180029 | 84 | 330 | 3.0 | 5.0 | 0.00 | 0.00 | 0.00 | 39 | 1019.3 |
| 20260902173028 | 83 | 290 | 2.0 | 4.0 | 0.00 | 0.00 | 0.00 | 47 | 1019.2 |
| 20260902163027 | 86 | 9 | 3.0 | 5.0 | 0.00 | 0.00 | 0.00 | 47 | 1019.4 |
| 20260902160027 | 87 | 319 | 3.0 | 10.0 | 0.00 | 0.00 | 0.00 | 49 | 1019.7 |
| 20260902153027 | 88 | 5 | 6.0 | 9.0 | 0.00 | 0.00 | 0.00 | 41 | 1019.7 |
| 20260902150026 | 90 | 329 | 9.0 | 9.0 | 0.00 | 0.00 | 0.00 | 33 | 1019.7 |
| 20260902143026 | 92 | 289 | 4.0 | 10.0 | 0.00 | 0.00 | 0.00 | 32 | 1019.8 |
| 20260902140026 | 93 | 265 | 9.0 | 11.0 | 0.00 | 0.00 | 0.00 | 30 | 1019.7 |
| 20260902133025 | 94 | 355 | 5.0 | 8.0 | 0.00 | 0.00 | 0.00 | 28 | 1020.2 |
| 20260902130026 | 94 | 308 | 9.0 | 13.0 | 0.00 | 0.00 | 0.00 | 26 | 1020.4 |
| 20260902123025 | 93 | 281 | 4.0 | 5.0 | 0.00 | 0.00 | 0.00 | 28 | 1020.7 |
| 20260902120025 | 92 | 339 | 2.0 | 11.0 | 0.00 | 0.00 | 0.00 | 28 | 1020.8 |
| 20260902113024 | 93 | 313 | 8.0 | 8.0 | 0.00 | 0.00 | 0.00 | 28 | 1020.9 |
| 20260902110024 | 91 | 312 | 8.0 | 11.0 | 0.00 | 0.00 | 0.00 | 30 | 1021.1 |
| 20260902103024 | 90 | 315 | 5.0 | 10.0 | 0.00 | 0.00 | 0.00 | 31 | 1021.2 |
| 20260902100024 | 90 | 326 | 4.0 | 10.0 | 0.00 | 0.00 | 0.00 | 32 | 1021.5 |
| 20260902093023 | 88 | 296 | 4.0 | 8.0 | 0.00 | 0.00 | 0.00 | 36 | 1021.5 |
| 20260902090023 | 88 | 22 | 3.0 | 5.0 | 0.00 | 0.00 | 0.00 | 35 | 1021.4 |
| 20260902083023 | 87 | 13 | 7.0 | 11.0 | 0.00 | 0.00 | 0.00 | 36 | 1021.4 |
| 20260902063021 | 81 | 19 | 3.0 | 10.0 | 0.00 | 0.00 | 0.00 | 54 | 1020.1 |
| 20260902060021 | 79 | 5 | 4.0 | 8.0 | 0.00 | 0.00 | 0.00 | 58 | 1019.8 |
| 20260902053020 | 78 | 17 | 5.0 | 9.0 | 0.00 | 0.00 | 0.00 | 60 | 1019.5 |
| 20260902050020 | 77 | 340 | 3.0 | 10.0 | 0.00 | 0.00 | 0.00 | 60 | 1019.2 |
| 20260902043020 | 76 | 9 | 5.0 | 8.0 | 0.00 | 0.00 | 0.00 | 66 | 1019.3 |
| 20260902040020 | 75 | 355 | 5.0 | 6.0 | 0.00 | 0.00 | 0.00 | 73 | 1019.2 |
| 20260902030020 | 74 | 338 | 5.0 | 8.0 | 0.00 | 0.00 | 0.00 | 78 | 1019.3 |
| 20260902013048 | 75 | 343 | 5.0 | 9.0 | 0.00 | 0.00 | 0.00 | 83 | 1020.3 |
| 20260902003018 | 75 | 16 | 4.0 | 10.0 | 0.00 | 0.00 | 0.00 | 81 | 1020.5 |
| 20260902000047 | 77 | 310 | 3.0 | 8.0 | 0.00 | 0.00 | 0.00 | 64 | 1020.7 |
| 20260901233016 | 75 | 345 | 3.0 | 4.0 | 0.00 | 0.00 | 0.00 | 70 | 1020.7 |
| 20260901230016 | 74 | 17 | 2.0 | 4.0 | 0.00 | 0.00 | 0.00 | 83 | 1020.5 |
| 20260901223046 | 74 | 355 | 4.0 | 5.0 | 0.00 | 0.00 | 0.00 | 85 | 1020.4 |
| 20260901220045 | 74 | 26 | 4.0 | 4.0 | 0.00 | 0.00 | 0.00 | 85 | 1020.4 |
| 20260901213045 | 76 | 25 | 2.0 | 6.0 | 0.00 | 0.00 | 0.00 | 81 | 1020.5 |
| 20260901210044 | 77 | 63 | 1.0 | 3.0 | 0.00 | 0.00 | 0.00 | 79 | 1020.6 |
| 20260901203044 | 76 | 321 | 5.0 | 10.0 | 0.00 | 0.00 | 0.00 | 84 | 1020.3 |